Torna al catalogo

SJ-11-06

AttivoScienzaSSO
NORAD 39624·PAYLOAD·🇨🇳 China

Lanciato Mar 31, 2014 da Jiuquan Satellite Launch Center

Loading…

Prossimi Passaggi (prossime 24 ore)

TLE

AggiornatoSource: Space-Track

Epoca: Sep 14, 2026, 13:22 UTC

1 39624U 14014A   26257.55737741  .00000295  00000-0  67896-4 0  9991
2 39624  97.9450 280.8957 0015228  66.8877 293.3928 14.61920734663759

Traccia SJ-11-06 in tempo reale con AllMySat

Download on the App Store